Location: Unspecified
(0.0000°N, 0.0000°E)
Time: 18:07:26
(UTC+00:00)

STARLINK 1012 - Pass Details

Date: 18 January 2020
Orbit: 347 x 352 km, 53.0° (Epoch: 22 January)

Event Time Altitude Azimuth Distance (km) Brightness Sun altitude
Exits shadow 04:13:45 - 175° (S) 1,871 6.7 -27.1°
Reaches altitude 10° 04:16:12 10° 140° (SE) 1,299 6.3 -26.5°
Maximum altitude 04:16:58 11° 125° (SE) 1,255 6.4 -26.3°
Drops below altitude 10° 04:17:45 10° 109° (ESE) 1,297 6.5 -26.2°
Sets 04:21:01 0° 68° (ENE) 2,134 7.3 -25.4°
